Location: *
(32.8140°S, 174.6161°E)
Time: 17:34:50
(UTC+00:00)

Spot 4 Rocket - Pass Details

Date: 10 December 2019
Orbit: 776 x 782 km, 98.7° (Epoch: 27 January)

Event Time Altitude Azimuth Distance (km) Brightness Sun altitude
Exits shadow 14:33:51 73° 341° (NNW) 822 3.9 -25.1°
Maximum altitude 14:34:18 81° 284° (WNW) 800 3.9 -25.0°
Drops below altitude 10° 14:39:31 10° 195° (SSW) 2,355 7.0 -24.4°
Sets 14:41:51 0° 194° (SSW) 3,289 7.8 -24.1°
